Total_Precipitation_Accumulation
0.02 0.01 0.01 0.01 0.01 0.01 0.01 0.01 0.02 0.02 0.01 0.00 0.00 0.00 0.00 0.00 0.00 0.00 0.00 0.01 0.02 0.02 0.02 0.02 0.02 0.03 0.03 0.04 0.05 0.06 0.07 0.08 0.09 0.11 0.15 0.23 0.30 0.35
0.02 0.02 0.02 0.02 0.02 0.02 0.02 0.03 0.03 0.04 0.03 0.01 0.00 0.00 0.00 0.00 0.00 0.01 0.01 0.02 0.02 0.03 0.03 0.04 0.04 0.04 0.04 0.05 0.07 0.08 0.09 0.10 0.10 0.12 0.13 0.16 0.22 0.29
0.04 0.04 0.04 0.04 0.05 0.04 0.04 0.04 0.03 0.03 0.04 0.02 0.01 0.01 0.02 0.03 0.03 0.04 0.04 0.06 0.06 0.07 0.08 0.08 0.07 0.07 0.07 0.09 0.11 0.12 0.13 0.12 0.12 0.12 0.13 0.14 0.15 0.18
0.06 0.05 0.05 0.05 0.06 0.05 0.05 0.04 0.04 0.05 0.07 0.06 0.03 0.02 0.03 0.04 0.06 0.08 0.06 0.05 0.07 0.07 0.10 0.10 0.11 0.11 0.11 0.10 0.10 0.10 0.09 0.09 0.10 0.11 0.13 0.15 0.17 0.18
0.05 0.04 0.03 0.03 0.04 0.04 0.04 0.04 0.04 0.04 0.07 0.09 0.07 0.06 0.05 0.06 0.11 0.11 0.10 0.13 0.10 0.11 0.10 0.10 0.09 0.08 0.07 0.07 0.06 0.06 0.05 0.05 0.05 0.06 0.08 0.10 0.13 0.15
0.03 0.02 0.02 0.03 0.04 0.06 0.05 0.06 0.07 0.09 0.11 0.14 0.13 0.10 0.09 0.08 0.14 0.15 0.13 0.13 0.12 0.09 0.09 0.08 0.07 0.05 0.04 0.04 0.04 0.04 0.04 0.03 0.04 0.04 0.05 0.05 0.05 0.06
0.01 0.01 0.01 0.03 0.04 0.05 0.06 0.08 0.12 0.15 0.17 0.19 0.16 0.12 0.09 0.12 0.16 0.17 0.16 0.11 0.07 0.07 0.11 0.11 0.12 0.11 0.10 0.10 0.08 0.06 0.04 0.03 0.03 0.03 0.03 0.04 0.04 0.04
0.02 0.02 0.02 0.02 0.02 0.02 0.05 0.10 0.16 0.19 0.20 0.21 0.19 0.18 0.15 0.16 0.19 0.19 0.20 0.20 0.15 0.11 0.16 0.12 0.13 0.14 0.15 0.17 0.15 0.09 0.06 0.05 0.04 0.03 0.02 0.02 0.02 0.03
0.03 0.03 0.03 0.01 0.03 0.04 0.05 0.07 0.07 0.08 0.14 0.22 0.25 0.23 0.22 0.22 0.27 0.26 0.27 0.29 0.23 0.17 0.25 0.20 0.13 0.15 0.15 0.15 0.15 0.11 0.09 0.07 0.05 0.04 0.03 0.02 0.02 0.03
0.03 0.03 0.04 0.04 0.05 0.05 0.04 0.04 0.05 0.07 0.09 0.13 0.21 0.22 0.22 0.23 0.27 0.30 0.31 0.30 0.23 0.21 0.32 0.31 0.16 0.15 0.13 0.20 0.21 0.15 0.11 0.10 0.08 0.06 0.04 0.03 0.03 0.03
0.02 0.02 0.03 0.05 0.07 0.07 0.05 0.06 0.08 0.10 0.07 0.08 0.15 0.21 0.24 0.27 0.28 0.30 0.39 0.43 0.33 0.19 0.28 0.36 0.25 0.19 0.16 0.21 0.23 0.18 0.14 0.12 0.09 0.07 0.06 0.07 0.07 0.06
0.01 0.02 0.04 0.06 0.05 0.05 0.04 0.09 0.15 0.14 0.14 0.18 0.25 0.30 0.33 0.41 0.41 0.39 0.46 0.47 0.40 0.35 0.32 0.38 0.34 0.32 0.28 0.20 0.21 0.22 0.22 0.19 0.14 0.12 0.10 0.09 0.12 0.13
0.03 0.05 0.09 0.07 0.05 0.05 0.06 0.11 0.16 0.15 0.21 0.30 0.33 0.32 0.33 0.37 0.38 0.35 0.37 0.40 0.45 0.49 0.41 0.41 0.40 0.40 0.41 0.27 0.17 0.19 0.22 0.26 0.26 0.27 0.25 0.21 0.17 0.15
0.06 0.09 0.11 0.08 0.07 0.09 0.10 0.14 0.16 0.22 0.31 0.36 0.35 0.33 0.30 0.30 0.30 0.28 0.29 0.33 0.39 0.43 0.39 0.38 0.43 0.42 0.38 0.28 0.23 0.19 0.24 0.33 0.43 0.49 0.45 0.40 0.28 0.23
0.07 0.09 0.11 0.12 0.14 0.21 0.21 0.21 0.26 0.35 0.37 0.36 0.36 0.34 0.28 0.24 0.21 0.21 0.24 0.30 0.37 0.36 0.31 0.29 0.34 0.34 0.32 0.31 0.32 0.31 0.29 0.33 0.44 0.55 0.57 0.52 0.43 0.32
0.07 0.11 0.18 0.24 0.27 0.32 0.35 0.39 0.40 0.37 0.33 0.34 0.34 0.29 0.22 0.18 0.18 0.19 0.23 0.27 0.32 0.34 0.28 0.25 0.27 0.28 0.32 0.30 0.31 0.35 0.33 0.42 0.49 0.55 0.61 0.64 0.57 0.42
0.06 0.13 0.21 0.26 0.31 0.32 0.35 0.39 0.41 0.37 0.32 0.30 0.30 0.27 0.22 0.19 0.19 0.18 0.21 0.22 0.26 0.30 0.29 0.25 0.25 0.24 0.23 0.23 0.30 0.32 0.32 0.40 0.53 0.58 0.62 0.73 0.75 0.59
0.11 0.18 0.21 0.24 0.29 0.30 0.30 0.33 0.36 0.35 0.30 0.27 0.27 0.26 0.22 0.21 0.23 0.23 0.22 0.23 0.27 0.28 0.27 0.24 0.20 0.16 0.15 0.19 0.32 0.38 0.37 0.48 0.58 0.55 0.50 0.62 0.84 0.79
0.19 0.23 0.24 0.27 0.31 0.28 0.27 0.32 0.36 0.34 0.29 0.26 0.25 0.23 0.21 0.19 0.20 0.21 0.21 0.20 0.20 0.20 0.20 0.17 0.17 0.17 0.17 0.25 0.38 0.57 0.56 0.53 0.51 0.48 0.48 0.56 0.80 0.85
0.24 0.24 0.24 0.27 0.30 0.29 0.26 0.26 0.27 0.25 0.23 0.22 0.22 0.19 0.18 0.18 0.18 0.18 0.16 0.14 0.15 0.16 0.16 0.16 0.15 0.18 0.22 0.28 0.52 0.70 0.69 0.51 0.43 0.50 0.58 0.61 0.75 0.79
0.21 0.22 0.23 0.23 0.24 0.27 0.25 0.22 0.20 0.18 0.16 0.15 0.16 0.17 0.17 0.15 0.14 0.13 0.12 0.09 0.11 0.12 0.14 0.17 0.19 0.18 0.16 0.15 0.32 0.56 0.65 0.73 0.63 0.60 0.64 0.60 0.50 0.39
0.19 0.21 0.20 0.18 0.20 0.19 0.16 0.15 0.15 0.14 0.12 0.11 0.11 0.11 0.11 0.12 0.11 0.10 0.09 0.08 0.07 0.07 0.10 0.12 0.13 0.12 0.12 0.14 0.27 0.45 0.50 0.49 0.50 0.55 0.58 0.43 0.28 0.29
0.19 0.19 0.17 0.16 0.15 0.14 0.12 0.09 0.09 0.09 0.09 0.11 0.10 0.08 0.07 0.07 0.05 0.04 0.03 0.03 0.03 0.03 0.04 0.07 0.07 0.07 0.07 0.09 0.15 0.21 0.22 0.19 0.15 0.17 0.34 0.44 0.40 0.43